Time,TemperatureF,DewpointF,PressureIn,WindDirection,WindDirectionDegrees,WindSpeedMPH,WindSpeedGustMPH,Humidity,HourlyPrecipIn,Conditions,Clouds,dailyrainin,SoftwareType,DateUTC
2013-09-11 00:17:00,60.4,58.4,30.12,SE,136,0.0,0.0,93,0.00,,,0.01,Wunderground v.1.15,2013-09-11 04:17:00,
2013-09-11 00:27:00,60.1,58.1,30.11,SE,136,0.0,0.0,93,0.00,,,0.01,Wunderground v.1.15,2013-09-11 04:27:00,
2013-09-11 00:37:00,59.9,57.9,30.11,SE,136,0.0,0.0,93,0.00,,,0.01,Wunderground v.1.15,2013-09-11 04:37:00,
2013-09-11 00:47:00,59.6,57.6,30.11,SE,136,0.0,0.0,93,0.00,,,0.01,Wunderground v.1.15,2013-09-11 04:47:00,
2013-09-11 00:57:00,59.3,57.3,30.11,SE,136,0.0,0.0,93,0.00,,,0.00,Wunderground v.1.15,2013-09-11 04:57:00,
2013-09-11 01:07:00,59.2,57.2,30.11,SE,136,0.0,0.0,93,0.00,,,0.00,Wunderground v.1.15,2013-09-11 05:07:00,
2013-09-11 01:17:00,59.2,57.2,30.11,SE,136,0.0,0.0,93,0.00,,,0.00,Wunderground v.1.15,2013-09-11 05:17:00,
2013-09-11 01:27:00,59.0,57.0,30.11,SE,136,0.0,0.0,93,0.00,,,0.00,Wunderground v.1.15,2013-09-11 05:27:00,
2013-09-11 01:37:00,58.7,56.7,30.11,SE,136,0.0,0.0,93,0.00,,,0.00,Wunderground v.1.15,2013-09-11 05:37:00,
2013-09-11 01:47:00,58.4,56.4,30.11,SE,136,0.0,0.0,93,0.00,,,0.00,Wunderground v.1.15,2013-09-11 05:47:00,
2013-09-11 01:57:00,58.3,56.3,30.11,SE,136,0.0,0.0,93,0.00,,,0.00,Wunderground v.1.15,2013-09-11 05:57:00,
2013-09-11 02:07:00,58.3,56.3,30.11,SE,136,0.0,0.0,93,0.00,,,0.00,Wunderground v.1.15,2013-09-11 06:07:00,
2013-09-11 02:17:00,58.0,56.0,30.10,SE,136,0.0,0.0,93,0.00,,,0.00,Wunderground v.1.15,2013-09-11 06:17:00,
2013-09-11 02:27:00,57.8,55.8,30.10,SE,137,0.0,0.0,93,0.00,,,0.00,Wunderground v.1.15,2013-09-11 06:27:00,
2013-09-11 02:37:00,57.8,56.1,30.10,SE,137,0.0,0.0,94,0.00,,,0.00,Wunderground v.1.15,2013-09-11 06:37:00,
2013-09-11 02:47:00,57.6,55.6,30.10,SE,137,0.0,0.0,93,0.00,,,0.00,Wunderground v.1.15,2013-09-11 06:47:00,
2013-09-11 02:57:00,57.5,55.8,30.10,SE,137,0.0,0.0,94,0.00,,,0.00,Wunderground v.1.15,2013-09-11 06:57:00,
2013-09-11 03:07:00,57.5,55.8,30.10,SE,137,0.0,0.0,94,0.00,,,0.00,Wunderground v.1.15,2013-09-11 07:07:00,
2013-09-11 03:17:00,57.6,55.9,30.10,SE,137,0.0,0.0,94,0.00,,,0.00,Wunderground v.1.15,2013-09-11 07:17:00,
2013-09-11 03:27:00,57.3,55.6,30.09,SE,137,0.0,0.0,94,0.00,,,0.00,Wunderground v.1.15,2013-09-11 07:27:00,
2013-09-11 03:37:00,57.2,55.5,30.09,SE,137,0.0,0.0,94,0.00,,,0.00,Wunderground v.1.15,2013-09-11 07:37:00,
2013-09-11 03:47:00,57.0,55.3,30.10,SE,137,0.0,0.0,94,0.00,,,0.00,Wunderground v.1.15,2013-09-11 07:47:00,
2013-09-11 03:57:00,56.9,55.2,30.10,SE,137,0.0,0.0,94,0.00,,,0.00,Wunderground v.1.15,2013-09-11 07:57:00,
2013-09-11 04:07:00,56.6,54.9,30.10,SE,137,0.0,0.0,94,0.00,,,0.00,Wunderground v.1.15,2013-09-11 08:07:00,
2013-09-11 04:17:00,56.5,54.8,30.10,SE,137,0.0,0.0,94,0.00,,,0.00,Wunderground v.1.15,2013-09-11 08:17:00,
2013-09-11 04:27:00,56.3,54.6,30.10,SE,137,0.0,0.0,94,0.00,,,0.00,Wunderground v.1.15,2013-09-11 08:27:00,
2013-09-11 04:37:00,56.0,54.3,30.10,SE,137,0.0,0.0,94,0.00,,,0.00,Wunderground v.1.15,2013-09-11 08:37:00,
2013-09-11 04:47:00,56.0,54.3,30.10,SE,137,0.0,0.0,94,0.00,,,0.00,Wunderground v.1.15,2013-09-11 08:47:00,
2013-09-11 04:57:00,55.9,54.2,30.10,SE,137,0.0,0.0,94,0.00,,,0.00,Wunderground v.1.15,2013-09-11 08:57:00,
2013-09-11 05:07:00,55.7,54.0,30.10,SE,137,0.0,0.0,94,0.00,,,0.00,Wunderground v.1.15,2013-09-11 09:07:00,
2013-09-11 05:17:00,55.6,53.9,30.11,SE,137,0.0,0.0,94,0.00,,,0.00,Wunderground v.1.15,2013-09-11 09:17:00,
2013-09-11 05:27:00,55.4,53.7,30.12,SE,137,0.0,0.0,94,0.00,,,0.00,Wunderground v.1.15,2013-09-11 09:27:00,
2013-09-11 05:37:00,55.4,53.7,30.12,SE,137,0.0,0.0,94,0.00,,,0.00,Wunderground v.1.15,2013-09-11 09:37:00,
2013-09-11 05:47:00,55.3,53.6,30.12,SE,137,0.0,0.0,94,0.00,,,0.00,Wunderground v.1.15,2013-09-11 09:47:00,
2013-09-11 06:07:00,55.0,53.3,30.12,SE,137,0.0,0.0,94,0.00,,,0.00,Wunderground v.1.15,2013-09-11 10:07:00,
2013-09-11 06:17:00,55.0,53.3,30.13,SE,137,0.0,0.0,94,0.00,,,0.00,Wunderground v.1.15,2013-09-11 10:17:00,
2013-09-11 06:27:00,54.8,53.1,30.13,SE,137,0.0,0.0,94,0.00,,,0.00,Wunderground v.1.15,2013-09-11 10:27:00,
2013-09-11 06:37:00,54.7,53.3,30.13,SE,137,0.0,0.0,95,0.00,,,0.00,Wunderground v.1.15,2013-09-11 10:37:00,
2013-09-11 06:47:00,54.7,53.3,30.14,SE,137,0.0,0.0,95,0.00,,,0.00,Wunderground v.1.15,2013-09-11 10:47:00,
2013-09-11 06:57:00,54.7,53.3,30.14,SE,137,0.0,0.0,95,0.00,,,0.00,Wunderground v.1.15,2013-09-11 10:57:00,
2013-09-11 07:07:00,54.5,53.1,30.14,SE,137,0.0,0.0,95,0.00,,,0.00,Wunderground v.1.15,2013-09-11 11:07:00,
2013-09-11 07:17:00,54.5,53.1,30.15,South,179,0.0,0.0,95,0.00,,,0.00,Wunderground v.1.15,2013-09-11 11:17:00,
2013-09-11 07:27:00,54.4,53.0,30.16,South,179,0.0,0.0,95,0.00,,,0.00,Wunderground v.1.15,2013-09-11 11:27:00,
2013-09-11 07:37:00,54.7,53.6,30.16,South,179,0.0,0.0,96,0.00,,,0.00,Wunderground v.1.15,2013-09-11 11:37:00,
2013-09-11 07:47:00,54.8,53.7,30.16,South,179,0.0,0.0,96,0.00,,,0.00,Wunderground v.1.15,2013-09-11 11:47:00,
2013-09-11 07:57:00,55.0,53.9,30.16,South,179,0.0,0.0,96,0.00,,,0.00,Wunderground v.1.15,2013-09-11 11:57:00,
2013-09-11 08:07:00,55.1,53.7,30.16,South,179,0.0,0.0,95,0.00,,,0.00,Wunderground v.1.15,2013-09-11 12:07:00,
2013-09-11 08:17:00,55.6,54.2,30.17,South,179,0.0,0.0,95,0.00,,,0.00,Wunderground v.1.15,2013-09-11 12:17:00,
2013-09-11 08:27:00,56.0,54.6,30.17,South,179,0.0,0.0,95,0.00,,,0.00,Wunderground v.1.15,2013-09-11 12:27:00,
2013-09-11 08:37:00,56.6,55.2,30.17,South,179,0.0,0.0,95,0.00,,,0.00,Wunderground v.1.15,2013-09-11 12:37:00,
2013-09-11 08:47:00,57.3,55.9,30.17,South,179,0.0,0.0,95,0.00,,,0.01,Wunderground v.1.15,2013-09-11 12:47:00,
2013-09-11 08:57:00,58.1,56.7,30.17,South,179,0.0,0.0,95,0.00,,,0.01,Wunderground v.1.15,2013-09-11 12:57:00,
2013-09-11 09:07:00,58.9,57.5,30.17,South,179,0.0,0.0,95,0.00,,,0.01,Wunderground v.1.15,2013-09-11 13:07:00,
2013-09-11 09:27:00,60.5,59.4,30.16,South,179,0.0,0.0,96,0.00,,,0.01,Wunderground v.1.15,2013-09-11 13:27:00,
2013-09-11 09:37:00,62.0,60.6,30.16,South,179,0.0,0.0,95,0.00,,,0.01,Wunderground v.1.15,2013-09-11 13:37:00,
2013-09-11 09:47:00,62.7,61.2,30.15,South,179,0.0,0.0,95,0.00,,,0.01,Wunderground v.1.15,2013-09-11 13:47:00,
2013-09-11 09:57:00,64.0,61.6,30.15,South,179,0.0,0.0,92,0.00,,,0.01,Wunderground v.1.15,2013-09-11 13:57:00,
2013-09-11 10:07:00,65.6,61.9,30.15,South,179,0.0,0.0,88,0.00,,,0.01,Wunderground v.1.15,2013-09-11 14:07:00,
2013-09-11 10:17:00,67.4,62.4,30.15,South,179,0.0,0.0,84,0.00,,,0.01,Wunderground v.1.15,2013-09-11 14:17:00,
2013-09-11 10:27:00,69.6,64.2,30.13,South,179,0.0,0.0,83,0.00,,,0.01,Wunderground v.1.15,2013-09-11 14:27:00,
2013-09-11 10:37:00,72.1,64.9,30.13,South,179,0.0,0.0,78,0.00,,,0.01,Wunderground v.1.15,2013-09-11 14:37:00,
2013-09-11 10:47:00,73.9,65.9,30.11,South,176,0.0,0.0,76,0.00,,,0.01,Wunderground v.1.15,2013-09-11 14:47:00,
2013-09-11 10:57:00,76.0,66.3,30.10,South,178,0.0,0.0,72,0.00,,,0.01,Wunderground v.1.15,2013-09-11 14:57:00,
2013-09-11 11:07:00,76.8,66.7,30.10,WNW,285,0.0,0.0,71,0.00,,,0.01,Wunderground v.1.15,2013-09-11 15:07:00,
2013-09-11 11:17:00,77.9,66.1,30.10,West,278,0.0,0.0,67,0.00,,,0.01,Wunderground v.1.15,2013-09-11 15:17:00,
2013-09-11 11:27:00,78.6,66.7,30.10,West,277,0.0,0.0,67,0.00,,,0.01,Wunderground v.1.15,2013-09-11 15:27:00,
2013-09-11 11:37:00,79.2,66.4,30.10,WNW,301,0.0,0.0,65,0.00,,,0.01,Wunderground v.1.15,2013-09-11 15:37:00,
2013-09-11 11:47:00,79.2,66.9,30.09,WNW,301,0.0,0.0,66,0.00,,,0.01,Wunderground v.1.15,2013-09-11 15:47:00,
2013-09-11 11:57:00,79.8,66.1,30.09,West,264,0.0,2.0,63,0.00,,,0.01,Wunderground v.1.15,2013-09-11 15:57:00,
2013-09-11 12:07:00,79.9,68.0,30.09,West,272,1.0,1.0,67,0.00,,,0.01,Wunderground v.1.15,2013-09-11 16:07:00,
2013-09-11 12:17:00,80.9,66.7,30.10,West,280,0.0,0.0,62,0.00,,,0.01,Wunderground v.1.15,2013-09-11 16:17:00,
2013-09-11 12:27:00,81.1,67.3,30.08,SW,220,1.0,1.0,63,0.00,,,0.01,Wunderground v.1.15,2013-09-11 16:27:00,
2013-09-11 12:37:00,81.2,66.9,30.08,West,277,1.0,1.0,62,0.00,,,0.01,Wunderground v.1.15,2013-09-11 16:37:00,
2013-09-11 12:47:00,81.8,67.0,30.08,West,277,1.0,1.0,61,0.00,,,0.01,Wunderground v.1.15,2013-09-11 16:47:00,
2013-09-11 12:57:00,81.1,67.8,30.07,West,274,2.0,2.0,64,0.00,,,0.01,Wunderground v.1.15,2013-09-11 16:57:00,
2013-09-11 13:07:00,80.7,67.4,30.07,WSW,258,0.0,0.0,64,0.00,,,0.01,Wunderground v.1.15,2013-09-11 17:07:00,
2013-09-11 13:17:00,81.8,67.5,30.07,West,281,1.0,1.0,62,0.00,,,0.01,Wunderground v.1.15,2013-09-11 17:17:00,
2013-09-11 13:27:00,83.2,66.9,30.06,West,264,0.0,0.0,58,0.00,,,0.01,Wunderground v.1.15,2013-09-11 17:27:00,
2013-09-11 13:37:00,83.4,67.1,30.06,West,264,0.0,1.0,58,0.00,,,0.01,Wunderground v.1.15,2013-09-11 17:37:00,
2013-09-11 13:47:00,84.0,66.1,30.05,West,267,0.0,6.0,55,0.00,,,0.01,Wunderground v.1.15,2013-09-11 17:47:00,
2013-09-11 13:57:00,83.8,67.4,30.05,West,272,1.0,1.0,58,0.00,,,0.01,Wunderground v.1.15,2013-09-11 17:57:00,
2013-09-11 14:07:00,84.0,65.6,30.05,West,280,1.0,3.0,54,0.00,,,0.01,Wunderground v.1.15,2013-09-11 18:07:00,
2013-09-11 14:17:00,83.0,65.7,30.04,West,275,1.0,1.0,56,0.00,,,0.01,Wunderground v.1.15,2013-09-11 18:17:00,
2013-09-11 14:27:00,82.0,67.2,30.04,NNE,23,0.0,0.0,61,0.00,,,0.01,Wunderground v.1.15,2013-09-11 18:27:00,
2013-09-11 14:37:00,78.1,65.4,30.04,East,95,2.0,2.0,65,0.00,,,0.01,Wunderground v.1.15,2013-09-11 18:37:00,
2013-09-11 14:47:00,76.3,64.5,30.05,NE,47,1.0,1.0,67,0.00,,,0.01,Wunderground v.1.15,2013-09-11 18:47:00,
2013-09-11 14:57:00,75.3,64.4,30.05,East,79,1.0,1.0,69,0.00,,,0.01,Wunderground v.1.15,2013-09-11 18:57:00,
2013-09-11 15:07:00,75.4,64.9,30.05,East,79,0.0,0.0,70,0.00,,,0.01,Wunderground v.1.15,2013-09-11 19:07:00,
2013-09-11 15:17:00,75.8,64.1,30.05,South,169,1.0,1.0,67,0.00,,,0.01,Wunderground v.1.15,2013-09-11 19:17:00,
2013-09-11 15:27:00,76.5,64.7,30.04,South,169,0.0,1.0,67,0.00,,,0.01,Wunderground v.1.15,2013-09-11 19:27:00,
2013-09-11 15:37:00,78.8,65.6,30.04,SSE,155,0.0,3.0,64,0.00,,,0.01,Wunderground v.1.15,2013-09-11 19:37:00,
2013-09-11 15:47:00,80.9,66.2,30.03,West,272,1.0,1.0,61,0.00,,,0.01,Wunderground v.1.15,2013-09-11 19:47:00,
2013-09-11 15:57:00,80.9,64.2,30.01,SSW,209,2.0,2.0,57,0.00,,,0.01,Wunderground v.1.15,2013-09-11 19:57:00,
2013-09-11 16:07:00,81.4,65.2,30.01,SSW,212,0.0,0.0,58,0.00,,,0.01,Wunderground v.1.15,2013-09-11 20:07:00,
2013-09-11 16:17:00,82.2,66.9,30.01,WSW,253,1.0,1.0,60,0.00,,,0.01,Wunderground v.1.15,2013-09-11 20:17:00,
2013-09-11 16:27:00,82.0,64.8,30.01,SW,215,1.0,1.0,56,0.00,,,0.01,Wunderground v.1.15,2013-09-11 20:27:00,
2013-09-11 16:37:00,81.6,66.4,30.01,South,182,1.0,1.0,60,0.00,,,0.01,Wunderground v.1.15,2013-09-11 20:37:00,
2013-09-11 16:47:00,81.1,66.4,30.01,WSW,237,0.0,0.0,61,0.00,,,0.01,Wunderground v.1.15,2013-09-11 20:47:00,
2013-09-11 16:57:00,80.1,65.9,30.00,SSE,165,0.0,0.0,62,0.00,,,0.01,Wunderground v.1.15,2013-09-11 20:57:00,
2013-09-11 17:07:00,79.8,66.5,30.00,SW,227,1.0,1.0,64,0.00,,,0.01,Wunderground v.1.15,2013-09-11 21:07:00,
2013-09-11 17:17:00,79.2,66.9,30.01,SSE,154,0.0,0.0,66,0.00,,,0.01,Wunderground v.1.15,2013-09-11 21:17:00,
2013-09-11 17:27:00,78.3,66.0,30.01,SSE,158,0.0,0.0,66,0.00,,,0.01,Wunderground v.1.15,2013-09-11 21:27:00,
2013-09-11 17:37:00,77.9,66.1,30.01,SSE,157,0.0,0.0,67,0.00,,,0.01,Wunderground v.1.15,2013-09-11 21:37:00,
2013-09-11 17:47:00,77.9,67.7,30.01,SSE,157,0.0,0.0,71,0.00,,,0.01,Wunderground v.1.15,2013-09-11 21:47:00,
2013-09-11 17:57:00,77.6,68.7,30.00,SSE,157,0.0,0.0,74,0.00,,,0.01,Wunderground v.1.15,2013-09-11 21:57:00,
2013-09-11 18:07:00,77.4,68.9,30.00,SSE,157,0.0,0.0,75,0.00,,,0.01,Wunderground v.1.15,2013-09-11 22:07:00,
2013-09-11 18:27:00,77.2,68.7,30.02,NW,325,0.0,0.0,75,0.00,,,0.01,Wunderground v.1.15,2013-09-11 22:27:00,
2013-09-11 18:37:00,77.0,68.1,30.02,NW,325,0.0,0.0,74,0.00,,,0.01,Wunderground v.1.15,2013-09-11 22:37:00,
2013-09-11 18:47:00,76.7,68.2,30.02,NW,325,0.0,0.0,75,0.00,,,0.01,Wunderground v.1.15,2013-09-11 22:47:00,
2013-09-11 18:57:00,75.6,66.7,30.02,NW,325,0.0,0.0,74,0.00,,,0.01,Wunderground v.1.15,2013-09-11 22:57:00,
2013-09-11 19:07:00,74.9,66.1,30.02,NW,325,0.0,0.0,74,0.00,,,0.01,Wunderground v.1.15,2013-09-11 23:07:00,
2013-09-11 19:17:00,74.4,66.3,30.02,NW,325,0.0,0.0,76,0.00,,,0.01,Wunderground v.1.15,2013-09-11 23:17:00,
2013-09-11 19:27:00,74.0,66.7,30.04,NW,325,0.0,0.0,78,0.00,,,0.01,Wunderground v.1.15,2013-09-11 23:27:00,
2013-09-11 19:37:00,73.7,66.8,30.04,NW,325,0.0,0.0,79,0.00,,,0.01,Wunderground v.1.15,2013-09-11 23:37:00,
2013-09-11 19:47:00,73.0,66.8,30.04,NW,325,0.0,0.0,81,0.40,,,0.03,Wunderground v.1.15,2013-09-11 23:47:00,
2013-09-11 19:57:00,71.3,67.2,30.05,NE,38,0.0,0.0,87,2.57,,,0.17,Wunderground v.1.15,2013-09-11 23:57:00,